Date String (YYYY-MM-DD hh:mm:ss) UTC,Instrument flags,Ambient pressure (hPa),Sample flow (lpm),Bypass flow (lpm),Sample temperature (°C),Ambient temperature (°C),ASC tube jacket temperature (°C),LED temperature (°C),Box temperature (°C),Sample RH (%),Span deviation,Mass concentration (μg/m³),Mass concentration (μg/m³),Mass concentration (μg/m³)
DateTimeUTC,F1_M11,P_M11,Q1_M11,Q2_M11,T1_M11,T2_M11,T3_M11,T4_M11,T5_M11,U1_M11,ZSPAN_M11,X0_M11,X2_M11,X1_M11
2021-09-12 16:00:00,,0832.7,5.00,0.00,30.1,27.9,00.0,39.0,31.6,28.8,0000.8,0015.90,0007.41,0006.05
2021-09-12 16:01:00,,0832.7,5.00,0.00,29.9,26.0,00.0,39.0,31.0,29.1,0000.3,0016.06,0007.52,0006.11
2021-09-12 16:02:00,,0832.7,5.01,0.00,29.7,25.6,00.0,38.9,30.9,29.5,0000.0,0015.82,0007.60,0006.16
2021-09-12 16:03:00,,0832.7,5.00,0.00,29.6,26.0,00.0,38.9,30.9,29.3,-000.0,0016.33,0007.68,0006.20
2021-09-12 16:04:00,,0832.7,5.01,0.00,29.5,26.5,00.0,38.8,31.0,29.3,0000.1,0017.15,0007.88,0006.28
2021-09-12 16:05:00,,0832.7,4.99,0.00,29.5,27.0,00.0,38.8,31.1,29.3,0000.2,0017.43,0007.98,0006.32
2021-09-12 16:06:00,,0832.8,5.00,0.00,29.5,27.4,00.0,38.8,31.2,29.2,0000.8,0018.86,0008.06,0006.36
2021-09-12 16:07:00,,0832.8,5.00,0.00,29.6,27.7,00.0,38.8,31.3,29.1,0001.1,0020.49,0008.12,0006.42
2021-09-12 16:08:00,,0832.7,5.00,0.00,29.6,28.0,00.0,38.7,31.3,28.9,0000.9,0020.67,0008.14,0006.48
2021-09-12 16:09:00,,0832.7,5.00,0.00,29.6,28.2,00.0,38.7,31.4,28.9,0000.9,0020.05,0008.14,0006.51
2021-09-12 16:10:00,,0832.7,5.00,0.00,29.7,28.4,00.0,38.7,31.4,28.9,0000.7,0019.46,0008.11,0006.50
2021-09-12 16:11:00,,0832.8,4.99,0.00,29.7,28.5,00.0,38.8,31.5,28.9,0000.7,0019.35,0008.11,0006.49
2021-09-12 16:12:00,,0832.8,5.02,0.00,29.7,28.6,00.0,38.8,31.5,28.7,0000.9,0019.96,0008.03,0006.46
2021-09-12 16:13:00,,0832.8,4.99,0.00,29.8,28.8,00.0,38.8,31.6,28.4,0001.1,0020.90,0007.93,0006.40
2021-09-12 16:14:00,,0832.7,5.00,0.00,29.8,28.8,00.0,38.8,31.6,27.6,0001.1,0021.21,0007.85,0006.33
2021-09-12 16:15:00,,0832.7,5.00,0.00,29.8,28.9,00.0,38.8,31.7,27.3,0001.3,0020.83,0007.74,0006.24
2021-09-12 16:16:00,,0832.7,5.01,0.00,29.9,29.0,00.0,38.8,31.7,27.4,0001.3,0020.33,0007.59,0006.17
2021-09-12 16:17:00,,0832.8,5.01,0.00,29.9,29.1,00.0,38.9,31.8,27.2,0001.3,0018.82,0007.48,0006.09
2021-09-12 16:18:00,,0832.7,5.01,0.00,29.9,29.1,00.0,38.9,31.8,27.2,0001.2,0017.55,0007.39,0006.00
2021-09-12 16:19:00,,0832.8,5.00,0.00,30.0,29.2,00.0,38.9,31.8,27.3,0001.5,0017.44,0007.35,0005.93
2021-09-12 16:20:00,,0832.8,4.99,0.00,30.0,29.2,00.0,38.9,31.9,27.1,0001.6,0017.24,0007.28,0005.85
2021-09-12 16:21:00,,0832.8,5.01,0.00,30.0,28.6,00.0,39.0,31.7,27.1,0002.1,0017.23,0007.26,0005.80
2021-09-12 16:22:00,,0832.8,5.00,0.00,29.9,26.9,00.0,38.9,31.3,27.3,0002.2,0017.62,0007.20,0005.76
2021-09-12 16:23:00,,0832.7,5.00,0.00,29.8,26.7,00.0,38.9,31.2,27.5,0002.1,0017.06,0007.17,0005.74
2021-09-12 16:24:00,,0832.8,4.99,0.00,29.8,27.0,00.0,38.9,31.3,27.6,0002.1,0016.38,0007.21,0005.74
2021-09-12 16:25:00,,0832.8,4.99,0.00,29.7,27.4,00.0,38.9,31.3,27.8,0002.2,0016.75,0007.23,0005.75
2021-09-12 16:26:00,,0832.8,5.00,0.00,29.7,27.7,00.0,38.8,31.4,27.9,0001.9,0017.29,0007.21,0005.74
2021-09-12 16:27:00,,0832.8,4.99,0.00,29.7,28.0,00.0,38.8,31.4,27.7,0001.7,0017.31,0007.21,0005.73
2021-09-12 16:28:00,,0832.8,5.00,0.00,29.8,28.3,00.0,38.8,31.5,27.8,0001.4,0017.60,0007.22,0005.73
2021-09-12 16:29:00,,0832.7,5.00,0.00,29.8,28.5,00.0,38.8,31.5,27.6,0001.1,0017.14,0007.19,0005.75
2021-09-12 16:30:00,,0832.7,4.99,0.00,29.8,28.6,00.0,38.8,31.6,27.6,0001.2,0016.84,0007.17,0005.76
2021-09-12 16:31:00,,0832.7,5.01,0.00,29.8,28.7,00.0,38.9,31.7,27.3,0001.1,0017.10,0007.17,0005.77
2021-09-12 16:32:00,,0832.7,5.00,0.00,29.9,28.9,00.0,38.9,31.7,27.3,0000.9,0017.87,0007.15,0005.78
2021-09-12 16:33:00,,0832.7,5.01,0.00,29.9,29.0,00.0,38.9,31.8,27.3,0000.5,0017.89,0007.19,0005.80
2021-09-12 16:34:00,,0832.7,5.00,0.00,30.0,29.0,00.0,38.9,31.8,26.9,0000.7,0018.04,0007.21,0005.82
2021-09-12 16:35:00,,0832.7,5.00,0.00,30.0,28.9,00.0,38.9,31.8,27.0,0000.7,0018.05,0007.19,0005.83
2021-09-12 16:36:00,,0832.7,5.01,0.00,29.9,27.4,00.0,38.9,31.4,26.9,0000.9,0017.18,0007.17,0005.83
2021-09-12 16:37:00,,0832.7,4.99,0.00,29.7,25.8,00.0,38.9,31.0,27.4,0001.2,0017.38,0007.17,0005.87
2021-09-12 16:38:00,,0832.8,5.01,0.00,29.6,25.8,00.0,38.9,30.9,27.8,0001.3,0017.67,0007.23,0005.90
2021-09-12 16:39:00,,0832.8,5.00,0.00,29.5,26.2,00.0,38.8,30.9,27.9,0001.2,0017.55,0007.25,0005.92
2021-09-12 16:40:00,,0832.8,4.99,0.00,29.5,26.7,00.0,38.8,31.0,27.8,0001.2,0017.56,0007.26,0005.92
2021-09-12 16:41:00,,0832.7,5.01,0.00,29.5,27.2,00.0,38.7,31.1,27.7,0001.3,0018.01,0007.23,0005.92
2021-09-12 16:42:00,,0832.8,4.99,0.00,29.5,27.5,00.0,38.7,31.2,27.3,0001.1,0017.56,0007.24,0005.91
2021-09-12 16:43:00,,0832.8,5.01,0.00,29.5,27.8,00.0,38.7,31.2,27.2,0001.0,0016.76,0007.25,0005.90
2021-09-12 16:44:00,,0832.7,4.99,0.00,29.5,28.1,00.0,38.7,31.3,27.2,0001.2,0016.25,0007.23,0005.88
2021-09-12 16:45:00,,0832.7,5.00,0.00,29.6,28.3,00.0,38.7,31.4,27.0,0001.2,0016.27,0007.23,0005.87
2021-09-12 16:46:00,,0832.7,5.00,0.00,29.6,28.4,00.0,38.7,31.4,26.9,0000.9,0016.95,0007.26,0005.86
2021-09-12 16:47:00,,0832.8,5.00,0.00,29.7,28.6,00.0,38.7,31.5,27.4,0000.7,0017.36,0007.31,0005.86
2021-09-12 16:48:00,,0832.8,5.00,0.00,29.7,28.7,00.0,38.7,31.5,27.7,0000.8,0016.45,0007.30,0005.85
2021-09-12 16:49:00,,0832.9,5.01,0.00,29.7,28.8,00.0,38.7,31.6,26.8,0001.1,0016.25,0007.27,0005.84
2021-09-12 16:50:00,,0832.8,5.01,0.00,29.8,28.9,00.0,38.8,31.6,26.8,0001.1,0017.06,0007.26,0005.85
2021-09-12 16:51:00,,0832.8,4.99,0.00,29.8,28.9,00.0,38.8,31.7,26.3,0001.1,0017.80,0007.28,0005.86
2021-09-12 16:52:00,,0832.9,5.00,0.00,29.8,29.0,00.0,38.8,31.7,25.6,0000.8,0017.41,0007.32,0005.87
2021-09-12 16:53:00,,0832.8,5.02,0.00,29.9,29.1,00.0,38.8,31.7,26.4,0001.2,0017.50,0007.32,0005.91
2021-09-12 16:54:00,,0832.8,5.00,0.00,29.9,29.2,00.0,38.9,31.8,26.0,0001.3,0017.45,0007.30,0005.93
2021-09-12 16:55:00,,0832.8,5.00,0.00,30.0,29.2,00.0,38.9,31.9,25.1,0001.5,0017.52,0007.28,0005.94
2021-09-12 16:56:00,,0832.7,5.01,0.00,30.0,29.3,00.0,38.9,31.9,25.1,0001.2,0016.89,0007.30,0005.97
2021-09-12 16:57:00,,0832.7,5.00,0.00,30.0,29.0,00.0,38.9,31.8,24.9,0001.5,0015.66,0007.30,0005.99
2021-09-12 16:58:00,,0832.7,4.99,0.00,29.9,27.2,00.0,38.9,31.3,25.3,0001.5,0014.64,0007.22,0006.01
2021-09-12 16:59:00,,0832.7,5.01,0.00,29.7,25.9,00.0,38.9,30.9,25.7,0001.4,0014.62,0007.16,0006.01
